F06AC378 Weather Reports


time (UTC)temp
C
wind
direction
speed
KPH
gust
KPH
rain 1hr
cm
rain 24hr
cm
rain mn
cm
humidity
%
barometer
mb
20260506204040 7 0 0.0 3.2 0.00 0.56 0.56 72 1011.2
20260506203536 7 58 0.0 4.8 0.00 0.56 0.56 73 1011.3
20260506203044 7 58 1.6 4.8 0.00 0.56 0.56 73 1011.1
20260506202536 7 58 0.0 3.2 0.00 0.56 0.56 73 1011.0
20260506202035 7 58 0.0 3.2 0.00 0.56 0.56 73 1011.0
20260506201553 7 0 0.0 6.4 0.00 0.56 0.56 72 1011.0
20260506201040 7 0 0.0 6.4 0.00 0.56 0.56 71 1011.0
20260506200534 7 58 0.0 6.4 0.00 0.56 0.56 71 1010.9
20260506200055 7 126 1.6 4.8 0.00 0.56 0.56 71 1010.8
20260506195536 7 137 0.0 4.8 0.00 0.56 0.56 71 1010.6
20260506195036 7 0 0.0 8.0 0.00 0.56 0.56 69 1010.6
20260506194558 7 0 0.0 8.0 0.00 0.56 0.56 69 1010.5
20260506194037 7 82 1.6 8.0 0.00 0.56 0.56 70 1010.3
20260506193539 7 5 1.6 8.0 0.00 0.56 0.56 71 1010.3
20260506193046 7 0 0.0 4.8 0.00 0.56 0.56 71 1010.3
20260506192534 7 77 1.6 4.8 0.00 0.56 0.56 72 1010.2
20260506192038 7 22 0.0 3.2 0.00 0.56 0.56 72 1010.0
20260506191545 7 22 0.0 8.0 0.00 0.56 0.56 72 1009.9
20260506191035 7 0 0.0 8.0 0.00 0.56 0.56 71 1009.8
20260506190538 7 34 1.6 8.0 0.00 0.56 0.56 74 1009.6
20260506190042 8 29 1.6 8.0 0.00 0.56 0.56 72 1009.6
20260506185534 8 31 0.0 8.0 0.00 0.56 0.56 71 1009.5
20260506185036 8 19 1.6 8.0 0.00 0.56 0.56 70 1009.4
20260506184550 8 108 1.6 4.8 0.00 0.56 0.56 71 1009.5
20260506184036 9 0 0.0 3.2 0.00 0.56 0.56 68 1009.5
20260506183535 10 146 0.0 3.2 0.00 0.56 0.56 66 1009.5
20260506183057 10 0 0.0 3.2 0.00 0.56 0.56 64 1009.3
20260506182534 10 146 0.0 4.8 0.00 0.56 0.56 63 1009.2
20260506182035 10 146 0.0 11.3 0.00 0.56 0.56 63 1009.2
20260506181555 10 218 0.0 11.3 0.00 0.56 0.56 63 1009.2
20260506181036 10 194 3.2 11.3 0.00 0.56 0.56 62 1009.1
20260506180537 10 136 0.0 4.8 0.00 0.56 0.56 62 1009.2
20260506180045 10 0 0.0 3.2 0.00 0.56 0.56 64 1009.0
20260506175537 10 144 0.0 8.0 0.00 0.56 0.56 62 1009.0
20260506175034 10 0 0.0 8.0 0.00 0.56 0.56 64 1009.0
20260506174542 10 166 3.2 8.0 0.00 0.56 0.56 65 1009.1
20260506174035 10 0 1.6 8.0 0.00 0.56 0.56 62 1009.1
20260506173535 10 323 1.6 14.5 0.00 0.56 0.56 61 1008.9
20260506173104 11 0 1.6 14.5 0.00 0.56 0.56 62 1008.8
20260506172535 11 249 1.6 9.7 0.00 0.56 0.56 62 1008.6
20260506172034 11 59 1.6 9.7 0.00 0.56 0.56 64 1008.6
20260506171549 11 0 0.0 6.4 0.00 0.56 0.56 65 1008.6
20260506171034 11 0 0.0 6.4 0.00 0.56 0.56 67 1008.4
20260506170536 11 44 1.6 6.4 0.00 0.56 0.56 64 1008.2
20260506170050 11 19 0.0 4.8 0.00 0.56 0.56 70 1008.3
20260506165538 11 321 0.0 4.8 0.00 0.56 0.56 68 1008.2
20260506165035 11 0 0.0 3.2 0.00 0.56 0.56 67 1008.2
20260506164549 11 0 0.0 4.8 0.00 0.56 0.56 64 1008.1
20260506164034 11 0 0.0 6.4 0.00 0.56 0.56 65 1008.2
20260506163535 11 0 1.6 6.4 0.00 0.56 0.56 65 1008.1
20260506163042 11 272 0.0 6.4 0.00 0.56 0.56 64 1008.2
20260506162534 12 200 1.6 6.4 0.00 0.56 0.56 64 1008.1
20260506162035 12 226 1.6 17.7 0.00 0.56 0.56 63 1008.1
20260506161602 12 317 1.6 17.7 0.00 0.56 0.56 61 1007.9
20260506161034 12 50 4.8 17.7 0.00 0.56 0.56 61 1007.8
20260506160535 12 0 1.6 9.7 0.00 0.56 0.56 63 1007.9
20260506160046 13 135 1.6 12.9 0.00 0.56 0.56 62 1008.0
20260506155534 13 205 3.2 16.1 0.00 0.56 0.56 59 1008.0
20260506155035 14 175 3.2 16.1 0.00 0.56 0.56 61 1007.9
20260506154554 14 165 3.2 12.9 0.00 0.56 0.56 60 1007.9
20260506154035 14 182 3.2 11.3 0.00 0.56 0.56 56 1008.0
20260506153535 14 248 4.8 11.3 0.00 0.56 0.56 51 1008.2
20260506153051 14 0 1.6 6.4 0.00 0.56 0.56 51 1008.0
20260506152535 13 159 1.6 8.0 0.00 0.56 0.56 56 1007.9
20260506152038 13 0 1.6 12.9 0.00 0.56 0.56 59 1007.8
20260506151604 13 42 4.8 12.9 0.00 0.56 0.56 59 1007.8
20260506151034 13 115 1.6 9.7 0.00 0.56 0.56 60 1007.8
20260506150534 13 129 3.2 9.7 0.00 0.56 0.56 58 1007.7
20260506150049 13 171 1.6 20.9 0.00 0.56 0.56 56 1007.8
20260506145535 13 56 4.8 20.9 0.00 0.56 0.56 58 1007.8
20260506145036 13 102 1.6 16.1 0.00 0.56 0.56 62 1007.8
20260506144541 13 322 6.4 16.1 0.00 0.56 0.56 63 1007.9
20260506144041 12 315 3.2 14.5 0.00 0.56 0.56 62 1008.0
20260506143535 12 319 4.8 16.1 0.00 0.56 0.56 62 1007.9
20260506143052 12 350 4.8 16.1 0.00 0.56 0.56 60 1008.0
20260506142536 12 26 4.8 14.5 0.00 0.56 0.56 64 1007.9
20260506142034 12 268 1.6 8.0 0.00 0.56 0.56 65 1008.1
20260506141542 12 0 3.2 8.0 0.00 0.56 0.56 64 1008.0
20260506141036 13 148 1.6 8.0 0.00 0.56 0.56 62 1008.0
20260506140538 13 180 3.2 9.7 0.00 0.56 0.56 61 1007.8
20260506140043 13 0 1.6 9.7 0.00 0.56 0.56 64 1007.7
20260506135536 13 0 3.2 9.7 0.00 0.56 0.56 65 1007.6
20260506135035 13 191 1.6 8.0 0.00 0.56 0.56 69 1007.6
20260506134544 13 218 1.6 8.0 0.00 0.56 0.56 65 1007.6
20260506134035 13 148 3.2 9.7 0.00 0.56 0.56 70 1007.6
20260506133536 13 207 3.2 9.7 0.00 0.56 0.56 69 1007.7
20260506133049 12 173 3.2 11.3 0.00 0.56 0.56 73 1007.7
20260506132535 12 123 3.2 11.3 0.00 0.56 0.56 75 1007.7
20260506132038 12 148 3.2 14.5 0.00 0.56 0.56 73 1007.8
20260506131544 12 203 3.2 14.5 0.00 0.56 0.56 79 1007.8
20260506131039 11 242 1.6 12.9 0.00 0.56 0.56 79 1007.9
20260506130534 11 158 3.2 12.9 0.00 0.56 0.56 80 1007.9
20260506130053 11 150 4.8 12.9 0.00 0.56 0.56 78 1008.0
20260506125536 11 145 4.8 9.7 0.00 0.56 0.56 81 1008.0
20260506125034 11 210 1.6 11.3 0.00 0.56 0.56 84 1008.1
20260506124550 10 191 3.2 11.3 0.00 0.56 0.56 84 1008.1
20260506124035 10 126 3.2 11.3 0.00 0.56 0.56 84 1008.1
20260506123535 10 149 3.2 11.3 0.00 0.56 0.56 84 1008.1
20260506123049 10 167 3.2 11.3 0.00 0.56 0.56 85 1008.2
20260506122536 10 202 4.8 11.3 0.00 0.56 0.56 87 1008.2
20260506122035 10 178 3.2 9.7 0.00 0.56 0.56 90 1008.1
20260506121547 10 0 3.2 8.0 0.00 0.56 0.56 90 1008.1
20260506121035 10 153 1.6 8.0 0.00 0.56 0.56 92 1008.2
20260506120535 10 153 3.2 9.7 0.00 0.56 0.56 90 1008.2
20260506120050 9 0 3.2 11.3 0.00 0.56 0.56 91 1008.2
20260506115534 9 200 3.2 12.9 0.03 0.56 0.56 91 1008.2
20260506115034 9 280 4.8 12.9 0.03 0.56 0.56 92 1008.2
20260506114546 8 202 3.2 11.3 0.05 0.56 0.56 92 1008.2
20260506114035 8 152 1.6 8.0 0.08 0.56 0.56 93 1008.2
20260506113535 7 194 1.6 8.0 0.08 0.56 0.56 93 1008.2
20260506113056 7 183 1.6 8.0 0.08 0.56 0.56 93 1008.3
20260506112535 7 200 0.0 8.0 0.10 0.56 0.56 93 1008.3
20260506112034 7 219 1.6 6.4 0.13 0.56 0.56 92 1008.3
20260506111540 7 128 0.0 6.4 0.28 0.56 0.56 92 1008.3
20260506111037 7 0 0.0 6.4 0.33 0.56 0.56 91 1008.1
20260506110535 7 0 1.6 4.8 0.30 0.53 0.53 91 1008.2
20260506110056 7 0 0.0 6.4 0.30 0.53 0.53 90 1008.5
20260506105536 7 0 1.6 6.4 0.28 0.51 0.51 89 1008.5
20260506105035 7 0 0.0 14.5 0.28 0.48 0.48 85 1008.5
20260506104600 7 0 1.6 14.5 0.28 0.48 0.48 85 1008.4
20260506104036 7 306 4.8 14.5 0.25 0.46 0.46 86 1008.3
20260506103535 7 50 1.6 9.7 0.25 0.46 0.46 89 1008.3
20260506103051 7 255 1.6 11.3 0.23 0.46 0.46 89 1008.5
20260506102535 7 44 1.6 12.9 0.20 0.43 0.43 87 1008.5
20260506102035 8 225 3.2 17.7 0.18 0.41 0.41 86 1008.6
20260506101555 8 316 3.2 17.7 0.03 0.25 0.25 85 1008.8
20260506101038 9 131 3.2 11.3 0.00 0.20 0.20 85 1008.3
20260506100535 10 131 1.6 9.7 0.00 0.20 0.20 87 1008.0
20260506100055 10 234 1.6 12.9 0.00 0.20 0.20 86 1007.9
20260506095538 10 215 3.2 12.9 0.00 0.20 0.20 86 1007.7
20260506095036 10 144 6.4 12.9 0.00 0.20 0.20 87 1007.6
20260506094552 9 222 1.6 11.3 0.00 0.20 0.20 90 1007.4
20260506094037 9 180 3.2 11.3 0.00 0.20 0.20 89 1007.3
20260506093538 9 155 4.8 11.3 0.00 0.20 0.20 91 1007.4
20260506093047 9 211 3.2 12.9 0.00 0.20 0.20 92 1007.3
20260506092535 9 167 3.2 12.9 0.00 0.20 0.20 92 1007.2
20260506092035 8 212 1.6 12.9 0.00 0.20 0.20 93 1007.3
20260506091542 8 147 3.2 11.3 0.00 0.20 0.20 93 1007.2
20260506091038 8 237 3.2 11.3 0.00 0.20 0.20 93 1007.2
20260506090535 8 188 1.6 8.0 0.00 0.20 0.20 93 1007.2
20260506090043 8 0 1.6 6.4 0.00 0.20 0.20 93 1007.2
20260506085535 8 0 1.6 8.0 0.00 0.20 0.20 94 1007.2
20260506085035 8 200 1.6 11.3 0.00 0.20 0.20 94 1007.3
20260506084549 8 182 3.2 11.3 0.00 0.20 0.20 94 1007.3
20260506084035 8 163 3.2 11.3 0.00 0.20 0.20 94 1007.3
20260506083537 8 206 1.6 11.3 0.00 0.20 0.20 94 1007.3
20260506083045 8 165 3.2 16.1 0.00 0.20 0.20 94 1007.3
20260506082539 8 216 3.2 16.1 0.00 0.20 0.20 95 1007.3
20260506082035 8 175 3.2 11.3 0.00 0.20 0.20 95 1007.3
20260506081546 8 184 1.6 9.7 0.00 0.20 0.20 95 1007.3
20260506081035 7 184 0.0 9.7 0.00 0.20 0.20 95 1007.2
20260506080535 7 216 0.0 4.8 0.00 0.20 0.20 95 1007.1
20260506073045 7 168 1.6 9.7 0.00 0.20 0.18 93 1006.8
20260506072535 7 171 1.6 8.0 0.00 0.20 0.18 93 1006.7
20260506072035 7 150 0.0 6.4 0.00 0.20 0.18 93 1006.7
20260506071600 7 170 1.6 6.4 0.00 0.20 0.18 92 1006.8
20260506071035 7 0 0.0 6.4 0.00 0.20 0.18 92 1006.7
20260506070535 7 183 0.0 6.4 0.00 0.20 0.18 92 1006.7
20260506062034 7 0 0.0 3.2 0.10 0.20 0.18 90 1006.8
20260506061548 7 0 0.0 8.0 0.10 0.20 0.18 90 1006.9
20260506061036 7 171 1.6 8.0 0.13 0.20 0.18 91 1006.9
20260506060538 7 170 1.6 9.7 0.15 0.20 0.18 92 1006.8
20260506051036 7 59 0.0 4.8 0.05 0.25 0.05 95 1007.3
20260506050535 7 0 0.0 6.4 0.03 0.23 0.03 95 1007.2
20260506045035 7 0 0.0 4.8 0.03 0.30 0.03 95 1007.3
20260506044545 7 160 0.0 3.2 0.00 0.28 0.00 95 1007.4
20260506044035 7 0 0.0 3.2 0.00 0.28 0.00 95 1007.4
20260506043540 7 160 0.0 1.6 0.00 0.28 0.00 95 1007.4
20260506043047 7 0 0.0 6.4 0.00 0.28 0.00 95 1007.4
20260506042536 7 0 0.0 8.0 0.00 0.28 0.00 95 1007.5
20260506042040 7 0 0.0 8.0 0.00 0.28 0.00 95 1007.4
20260506041555 7 26 3.2 8.0 0.00 0.28 0.00 95 1007.4
20260506041035 7 0 0.0 8.0 0.00 0.28 0.00 94 1007.5
20260506040535 7 0 0.0 8.0 0.00 0.28 0.00 94 1007.5
20260506040050 7 142 1.6 8.0 0.00 0.28 0.00 94 1007.6
20260506035538 7 140 3.2 8.0 0.00 0.36 0.00 94 1007.7
20260506035038 7 146 3.2 6.4 0.00 0.36 0.00 94 1007.6
20260506034554 7 128 1.6 6.4 0.00 0.36 0.00 94 1007.8
20260506034036 7 142 0.0 4.8 0.00 0.36 0.00 94 1007.9
20260506033539 7 0 0.0 3.2 0.00 0.36 0.00 94 1008.2
20260506033048 7 0 0.0 3.2 0.00 0.36 0.00 94 1008.2
20260506032535 7 0 0.0 3.2 0.00 0.36 0.00 94 1008.2
20260506032036 7 243 0.0 4.8 0.00 0.36 0.00 94 1008.3
20260506031546 7 0 0.0 4.8 0.00 0.36 0.00 94 1008.4
20260506031036 7 0 0.0 3.2 0.00 0.36 0.00 94 1008.5
20260506030536 7 107 0.0 3.2 0.00 0.36 0.00 94 1008.5
20260506030048 7 42 0.0 3.2 0.00 0.36 0.00 94 1008.5
20260506025535 7 0 0.0 1.6 0.00 0.36 0.00 94 1008.7
20260506025036 7 308 0.0 4.8 0.00 0.36 0.00 94 1008.8
20260506024544 7 0 0.0 4.8 0.00 0.36 0.00 94 1008.9
20260506024036 7 56 0.0 6.4 0.00 0.36 0.00 94 1009.0
20260506023536 7 0 0.0 6.4 0.00 0.36 0.00 94 1008.9
20260506023046 7 236 0.0 3.2 0.00 0.36 0.00 94 1008.9
20260506022535 7 236 0.0 3.2 0.00 0.36 0.00 94 1009.0
20260506022035 7 0 0.0 4.8 0.00 0.36 0.00 94 1009.0
20260506021548 7 0 0.0 4.8 0.00 0.36 0.00 94 1009.1
20260506021036 7 0 0.0 3.2 0.00 0.36 0.00 94 1009.1
20260506020534 7 0 0.0 3.2 0.00 0.36 0.00 94 1009.2
20260506020043 7 344 0.0 3.2 0.00 0.36 0.00 94 1009.2
20260506015537 7 0 0.0 3.2 0.00 0.36 0.00 94 1009.4
20260506015037 7 344 0.0 1.6 0.00 0.36 0.00 94 1009.4
20260506014549 7 0 0.0 3.2 0.00 0.36 0.00 94 1009.3
20260506014035 7 0 0.0 3.2 0.00 0.36 0.00 94 1009.4
20260506013535 7 0 0.0 3.2 0.00 0.36 0.00 94 1009.8
20260506013048 7 344 0.0 3.2 0.00 0.36 0.00 94 1009.9
20260506012535 7 0 0.0 3.2 0.00 0.36 0.00 94 1010.0
20260506012035 7 0 0.0 3.2 0.00 0.36 0.00 94 1010.0
20260506011545 7 0 0.0 3.2 0.00 0.36 0.00 94 1010.1
20260506011035 7 0 0.0 1.6 0.00 0.36 0.00 94 1010.3
20260506010537 7 0 0.0 1.6 0.00 0.36 0.00 94 1010.3
20260506010047 7 0 0.0 1.6 0.00 0.36 0.00 94 1010.2
20260506005537 7 0 0.0 3.2 0.00 0.36 0.00 93 1010.2
20260506005035 7 0 0.0 3.2 0.00 0.36 0.00 93 1010.2
20260506004544 7 0 0.0 3.2 0.00 0.36 0.00 93 1010.2
20260506004035 7 0 0.0 3.2 0.00 0.36 0.00 93 1010.2
20260506003536 7 0 0.0 3.2 0.00 0.36 0.00 93 1010.2
20260506003043 7 344 0.0 1.6 0.00 0.36 0.00 93 1010.5
20260506002538 7 0 0.0 0.0 0.00 0.36 0.00 93 1010.5
20260506002035 7 0 0.0 1.6 0.00 0.36 0.00 93 1010.5
20260506001604 7 0 0.0 1.6 0.00 0.36 0.00 93 1010.8
20260506001036 7 0 0.0 3.2 0.00 0.36 0.00 94 1010.8
20260506000537 7 0 0.0 4.8 0.00 0.36 0.00 94 1010.9
20260506000050 7 0 0.0 4.8 0.00 0.36 0.00 93 1010.7
20260505235535 7 344 0.0 4.8 0.00 0.36 0.00 94 1011.0
20260505235035 7 0 0.0 3.2 0.00 0.36 0.00 93 1011.0
20260505234551 7 344 0.0 1.6 0.00 0.36 0.00 93 1011.2
20260505234037 7 0 0.0 3.2 0.00 0.36 0.00 94 1011.3
20260505233535 7 0 0.0 3.2 0.00 0.36 0.00 94 1011.3
20260505233055 7 0 0.0 3.2 0.00 0.36 0.00 94 1011.2
20260505232534 7 0 0.0 3.2 0.00 0.36 0.00 94 1011.4
20260505232036 7 0 0.0 3.2 0.00 0.36 0.00 94 1011.3
20260505231555 7 0 0.0 3.2 0.00 0.36 0.00 94 1011.3
20260505231038 7 0 0.0 1.6 0.00 0.36 0.00 94 1011.3
20260505230536 7 135 0.0 1.6 0.00 0.36 0.00 93 1011.2
20260505230041 7 0 0.0 3.2 0.00 0.36 0.00 94 1011.3
20260505225537 7 0 0.0 6.4 0.00 0.36 0.00 93 1011.4
20260505225035 7 0 0.0 6.4 0.00 0.36 0.00 93 1011.5
20260505224550 7 132 1.6 6.4 0.00 0.36 0.00 93 1011.6
20260505224035 7 0 1.6 6.4 0.00 0.36 0.00 93 1011.6
20260505223535 7 5 1.6 6.4 0.00 0.36 0.00 93 1011.7
20260505223054 7 5 0.0 4.8 0.00 0.36 0.00 93 1011.7
20260505222536 7 31 0.0 4.8 0.00 0.36 0.00 93 1011.8
20260505222036 7 0 0.0 3.2 0.00 0.36 0.00 93 1011.7
20260505221553 7 0 0.0 3.2 0.00 0.36 0.00 93 1011.5
20260505221036 7 0 0.0 3.2 0.00 0.36 0.00 93 1011.5
20260505220537 7 0 0.0 3.2 0.00 0.36 0.00 93 1011.5
20260505220043 7 0 0.0 1.6 0.00 0.36 0.00 93 1011.7
20260505215535 7 0 0.0 3.2 0.00 0.36 0.36 93 1011.7
20260505215035 7 0 0.0 4.8 0.00 0.36 0.36 93 1011.9
20260505214559 7 0 0.0 4.8 0.00 0.36 0.36 93 1011.9
20260505214035 7 0 0.0 4.8 0.00 0.36 0.36 93 1011.9
20260505213535 7 0 0.0 4.8 0.00 0.36 0.36 93 1012.0
20260505213055 7 0 0.0 3.2 0.00 0.36 0.36 92 1011.9
20260505212535 7 42 0.0 3.2 0.00 0.36 0.36 92 1011.9
20260505212035 7 31 0.0 3.2 0.00 0.36 0.36 92 1012.0
20260505211543 7 0 0.0 3.2 0.00 0.36 0.36 92 1012.1
20260505211036 7 0 0.0 3.2 0.00 0.36 0.36 92 1012.1
20260505210535 7 55 0.0 3.2 0.00 0.36 0.36 92 1012.3
20260505210056 7 55 0.0 4.8 0.00 0.36 0.36 92 1012.1
20260505205536 7 0 0.0 4.8 0.00 0.36 0.36 92 1012.0
20260505205036 7 320 0.0 1.6 0.00 0.36 0.36 92 1012.1
20260505204549 7 0 0.0 1.6 0.00 0.36 0.36 92 1012.2